COSMOS 886 DEB, 9655

Orbit data source: Space-Track

COSMOS 886 DEB, 9655 is space debris in LEO originally from a launch on Mon, 27 Dec 1976 UTC launched from the Tyuratam Missile And Space Complex (TTMTR). Debris objects in space refer to the collection of defunct objects orbiting the Earth. Examples of debris include non-operational satellites, rocket bodies, and fragments generated from explosions, collisions, or faulty payload assembly.

Loading next visibility...
Identifier
9655, 1976-126M
Orbit
LEO
Country
Flag of CISCIS
Related business
Manufacturer
Unknown
Mission
Spacecraft
Bus & Motor
Unknown
Mass
Unknown
Launch date (UTC)
1976-12-27 (49 years ago)
Launch vehicle
Unknown
Launch site
Tyuratam Missile And Space Complex (TTMTR)
Object type
Payload
Rocket body
Debris
Shape & HBR
Unknown shape, 0.2 m
Radar Cross Section
Small (<0.1 m²)

Expand to show TLE details & history
Last TLE update: 10 hours ago

TLE from 10 hours ago
0 COSMOS 886 DEB
1  9655U 76126M   26130.10437256  .00001861  00000-0  35008-3 0  9992
2  9655  65.7843 178.3780 0640063 110.1070 257.0024 13.83257003384167
Epoch: 2026-05-10T02:30Z
TLE epoch observation values (Epoch: 2026-05-10T02:30:17.789Z)
Latitude
-0.00005°
Longitude
-87.10839°
Altitude
1,087.749 km
Speed
7.242 km/s
True Right ascension
11h 53m 30s
True Declination
0° 00' 00"
Sunlit
Object was in full shadow at epoch
Visualization orbit readout
Latitude
Unknown
Longitude
Unknown
Altitude
Unknown
Speed
Unknown
Apparent Right ascension
Unknown
Apparent Declination
Unknown
Sunlit
N/A
Visualization observer readout
Local Sidereal Time
20:32:16
Azimuth
Unknown
Elevation
Unknown
Doppler factor
Unknown
Orbital elements
Apogee altitude
1,419.967 km
Perigee altitude
481.763 km
Semi-major axis
7,329.002 km
Eccentricity
0.06401
Inclination
65.7843°
RAAN
178.378°
Arg. of periapsis
110.107°
True anomaly
249.99958°
Mean anomaly
257.0024°
Eccentric anomaly
253.48638°
Mean motion
3.4592 °/min
Orbital period
104.07 mins
BSTAR
0.00035008
Loading maneuver chart data...
Computing Atmospheric mass density...
Loading historical data...
Loading historical data...
Loading historical data...
Loading historical data...
Loading historical data...
Loading historical data...
Loading historical data...

Documentation

Showing up to 5 results
|